Hartford, CT

6:51 AM EST on February 09, 2016 (GMT -0500)
Bradley International

Weather History for KBDL - May, 2013

Change the Weather History Date:

Thursday, May 30, 2013

  Actual Average Record
Temperature  
Mean Temperature 78 °F 64 °F  
Max Temperature 92 °F 75 °F 93 °F (1987)
Min Temperature 63 °F 52 °F 37 °F (1961)
Degree Days  
Heating Degree Days 0 4  
Month to date heating degree days 191 201  
Since 1 July heating degree days 5684 5954  
Cooling Degree Days 13 2  
Month to date cooling degree days 39 30  
Year to date cooling degree days 39 36  
Growing Degree Days 27 (Base 50)    
Moisture  
Dew Point 65 °F    
Average Humidity 71    
Maximum Humidity 100    
Minimum Humidity 41    
Precipitation  
Precipitation 0.03 in 0.17 in 2.55 in (1908)
Month to date precipitation 6.36 4.19  
Year to date precipitation 16.14 17.65  
Snow  
Snow 0.00 in 0.00 in 0.00 in (2002)
Month to date snowfall 0.0 0.0  
Since 1 July snowfall 56.9 40.5  
Snow Depth 0.00 in    
Sea Level Pressure  
Sea Level Pressure 30.06 in    
Wind  
Wind Speed 5 mph (South)    
Max Wind Speed 16 mph    
Max Gust Speed 23 mph    
Visibility 7 miles    
Events Fog , Rain , Thunderstorm    
T = Trace of Precipitation, MM = Missing Value Source: NWS Daily Summary

Daily Weather History Graph

Daily Weather History Graph

Search for Another Location

Airport or City:

Trip Planner

Search our weather history database for the weather conditions in past years. The results will help you decide how hot, cold, wet, or windy it might be!

Date:

Astronomy

May. 30, 2013 Rise Set
Actual Time 5:18 AM EDT 8:18 PM EDT
Civil Twilight 4:45 AM EDT 8:51 PM EDT
Nautical Twilight 4:02 AM EDT 9:34 PM EDT
Astronomical Twilight 3:13 AM EDT 10:24 PM EDT
Moon 12:14 AM EDT (5/30) 11:27 AM EDT (5/30)
Length of Visible Light 16h 06m
Length of Day
14h 59m
Waning Gibbous, 62% of the Moon is Illuminated
May 30
Waning Gibbous
May 31
Last Quarter
Jun 8
New
Jun 16
First Quarter
Jun 23
Full

Hourly Weather History & Observations

Time (EDT) Temp. Heat Index Dew Point Humidity Pressure Visibility Wind Dir Wind Speed Gust Speed Precip Events Conditions
12:29 AM 64.4 °F - 64.4 °F 100% 30.06 in 10.0 mi SE 5.8 mph - 0.01 in Rain Light Rain
12:51 AM 64.9 °F - 64.0 °F 97% 30.06 in 10.0 mi Calm Calm - 0.01 in   Overcast
1:29 AM 64.4 °F - 64.4 °F 100% 30.05 in 10.0 mi South 5.8 mph - 0.03 in Thunderstorm Thunderstorm
1:51 AM 64.9 °F - 63.0 °F 93% 30.06 in 6.0 mi South 3.5 mph - 0.03 in   Mostly Cloudy
2:13 AM 64.4 °F - 62.6 °F 94% 30.06 in 2.5 mi South 3.5 mph - N/A   Mostly Cloudy
2:51 AM 64.0 °F - 64.0 °F 100% 30.06 in 0.2 mi South 3.5 mph - N/A Fog Fog
3:45 AM 62.6 °F - 62.6 °F 100% 30.05 in 5.0 mi Calm Calm - N/A   Mostly Cloudy
3:51 AM 63.0 °F - 62.1 °F 97% 30.06 in 5.0 mi East 3.5 mph - N/A   Mostly Cloudy
4:08 AM 62.6 °F - 62.6 °F 100% 30.06 in 0.5 mi ESE 3.5 mph - N/A   Mostly Cloudy
4:22 AM 62.6 °F - 62.6 °F 100% 30.06 in 0.1 mi ESE 4.6 mph - N/A Fog Fog
4:37 AM 62.6 °F - 62.6 °F 100% 30.06 in 0.1 mi SE 4.6 mph - N/A Fog Fog
4:51 AM 63.0 °F - 63.0 °F 100% 30.06 in 0.1 mi SSE 5.8 mph - N/A Fog Fog
5:44 AM 62.6 °F - 62.6 °F 100% 30.06 in 0.1 mi SSW 5.8 mph - N/A Fog Fog
5:51 AM 63.0 °F - 62.1 °F 97% 30.07 in 0.1 mi South 4.6 mph - N/A Fog Fog
6:05 AM 62.6 °F - 62.6 °F 100% 30.07 in 3.0 mi Calm Calm - N/A   Scattered Clouds
6:51 AM 64.0 °F - 63.0 °F 96% 30.08 in 5.0 mi South 5.8 mph - N/A   Partly Cloudy
7:36 AM 66.2 °F - 64.4 °F 94% 30.09 in 7.0 mi South 3.5 mph - N/A   Scattered Clouds
7:51 AM 66.9 °F - 64.9 °F 93% 30.09 in 7.0 mi South 3.5 mph - N/A   Scattered Clouds
8:51 AM 72.0 °F - 66.0 °F 81% 30.10 in 10.0 mi SE 3.5 mph - N/A   Scattered Clouds
9:51 AM 75.0 °F - 66.9 °F 76% 30.10 in 10.0 mi South 5.8 mph - N/A   Mostly Cloudy
10:51 AM 79.0 °F - 69.1 °F 72% 30.09 in 10.0 mi Calm Calm - N/A   Mostly Cloudy
11:51 AM 84.0 °F 88.4 °F 70.0 °F 63% 30.09 in 10.0 mi Variable 4.6 mph - N/A   Mostly Cloudy
12:51 PM 88.0 °F 88.7 °F 63.0 °F 43% 30.08 in 10.0 mi West 9.2 mph - N/A   Scattered Clouds
1:51 PM 90.0 °F 91.3 °F 64.0 °F 42% 30.06 in 10.0 mi West 13.8 mph - N/A   Scattered Clouds
2:51 PM 91.0 °F 92.6 °F 64.0 °F 41% 30.05 in 10.0 mi West 10.4 mph 23.0 mph N/A   Scattered Clouds
3:51 PM 90.0 °F 90.6 °F 63.0 °F 40% 30.03 in 10.0 mi West 11.5 mph 19.6 mph N/A   Mostly Cloudy
4:51 PM 90.0 °F 91.3 °F 64.0 °F 42% 30.02 in 10.0 mi West 6.9 mph - N/A   Scattered Clouds
5:51 PM 90.0 °F 91.7 °F 64.9 °F 43% 30.02 in 10.0 mi WNW 8.1 mph - N/A   Scattered Clouds
6:51 PM 86.0 °F 88.2 °F 66.0 °F 51% 30.02 in 10.0 mi NW 3.5 mph - N/A   Scattered Clouds
7:51 PM 84.0 °F 87.0 °F 68.0 °F 58% 30.03 in 10.0 mi NNW 4.6 mph - N/A   Mostly Cloudy
8:00 PM 82.4 °F 86.3 °F 69.8 °F 66% 30.03 in 10.0 mi Calm Calm - N/A Thunderstorm Thunderstorm
8:46 PM 80.6 °F 82.7 °F 66.2 °F 61% 30.05 in 10.0 mi South 6.9 mph - N/A   Mostly Cloudy
8:51 PM 79.0 °F - 66.0 °F 64% 30.05 in 10.0 mi SSW 3.5 mph - N/A   Mostly Cloudy
9:51 PM 78.1 °F - 66.0 °F 66% 30.06 in 10.0 mi Calm Calm - N/A   Scattered Clouds
10:51 PM 75.0 °F - 66.9 °F 76% 30.06 in 10.0 mi Calm Calm - N/A   Partly Cloudy
11:51 PM 73.9 °F - 68.0 °F 82% 30.06 in 10.0 mi Calm Calm - N/A   Clear